星链-32438 (STARLINK-32438)

导读

STARLINK-32438是美国SpaceX公司于2024年10月30日发射的星链系列低轨通信卫星,属于星链全球宽带互联网星座的组成部分。星链卫星采用平板设计,搭载氪工质霍尔推进器,配备Ku/Ka波段通信载荷,具备自主避撞能力,寿命末期会主动离轨坠入大气层烧毁,旨在为全球尤其是偏远地区提供高速低延迟宽带互联网服务。

基本信息
目录编号:
61722
目录名称:
STARLINK-32438
国际标识:
2024-196R
轨道中心:
EARTH
卫星名称:
星链-32438
卫星全名:
星链-32438 (STARLINK-32438)
卫星状态:
在轨 (已飞行674 天)
发射日期:
2024-10-30 UTC
国别 :
美国 (US)
星等 :
--
轨道信息
数据来源 国际轨道数据
星历时间: 2026-09-04T00:56:54+0800
12小时前
查看轨道信息
半长轴: 6840.837km
偏心率: 0.0001182
轨道倾角: 53.162°
近地点辐角 92.477°
升交点赤经 352.210°
平近点角 267.637°
近地点: 461.891km
远地点: 463.509km
周期: 93.848分钟
每日圈数: 15.344012
详细信息
固有亮度:
5
最大亮度:
2.5
卫星平台:
Starlink V1.0
覆盖范围:
全球
运营商:
太空探索技术公司
运营商所在国:
美国
制造商(研发单位):
太空探索技术公司
制造商所在国:
美国
使用方式:
暂无
卫星简介
Starlink 计划是 SpaceX 推出的全球卫星互联网项目,通过发射低轨道卫星,为全球尤其是偏远地区提供高速、低延迟的互联网服务。自 2019 年起,Starlink 已部署数千颗卫星,旨在缩小全球数字鸿沟,推动互联网普及。该项目还为军事、航空等行业提供通信支持,带来广泛经济效益。
2D轨道图
3D轨道图
轨道高度分析图
轨道倾角分析图
轨道综合分析图
查看轨道综合分析图
交会数据列表
事件ID 空间交会对象 最接近时刻(TCA) 交会距离 交会风险概率(CRP) 交会风险指数(CRI) 操作
CDM_260904-211006-172206-563621
2026-09-04T
21:10:22+0000
1.020 km
极远距离
2.177685E-5 中风险 0.62
CDM_260905-134906-172206-488121
OBJECT F (64881)
2026-09-05T
13:49:15+0000
1.468 km
极远距离
6.707486E-6 低风险 0.52
CDM_260904-224406-172206-563621
2026-09-04T
22:44:09+0000
2.308 km
极远距离
1.800756E-6 低风险 0.4
CDM_260905-023305-016706-172221
2026-09-05T
02:33:10+0000
2.472 km
极远距离
1.60009E-6 低风险 0.39
CDM_260905-112806-172206-488121
OBJECT F (64881)
2026-09-05T
11:28:28+0000
2.641 km
极远距离
1.508246E-6 低风险 0.39
CDM_260904-193606-172206-563621
2026-09-04T
19:36:34+0000
2.930 km
极远距离
1.219804E-6 低风险 0.37
CDM_260903-101505-199306-172222
2026-09-03T
10:15:10+0000
2.556 km
极远距离
7.999331E-7 极低风险 0.33